Starlink 31142

operational
NORAD ID: 58779 Int'l Des: 2024-011 Owner: SPXS Country: US Constellation: starlink
LEOCIRCULAR

Über Starlink 31142

Beschreibung wird geladen...

Live-Position

3D-Globus wird geladen...

Nächste Überflüge

Höhenverlauf

Altitude vs Time

uPlot chart will show altitude changes over time

Zweizeiliger Elementsatz

1 58779U 24011Q 25350.32260855 .00002414 00000-0 93629-4 0 9994
2 58779 53.1619 41.0962 0001009 97.7899 262.3216 15.30185249107507
Epoch: 16. Dez. 2025 • Age: 14 hours

Aktueller Status

Höhe 493.4 km
Geschwindigkeit 7.62 km/s
Subsatellitenpunkt -50.60°S, 75.33°W
Startdatum 14. Jan. 2024
Alter 1.9 years
Typ internet

Technische Details

Klassifizierung Payload
Masse 730.00 kg
Trockenmasse 700.00 kg
Gesamtmasse 730.00 kg
Länge 0.30 m
Durchmesser 4.10 m
Spannweite 29.00 m
Form Box + pan
Hersteller SPXS
Bus-Typ Starlink V2M
Phasenstatus In Orbit
Besitzer/Staat SPXS/US

Große Konstellationen

Loading constellations...